Time,TemperatureF,DewpointF,PressureIn,WindDirection,WindDirectionDegrees,WindSpeedMPH,WindSpeedGustMPH,Humidity,HourlyPrecipIn,Conditions,Clouds,dailyrainin,SoftwareType,DateUTC
2013-06-25 00:00:00,78.6,74.4,30.14,WSW,248,8.0,17.0,87,0.00,,,0.00,WUHU216DAVISVP2,2013-06-25 04:00:00,
2013-06-25 00:01:00,78.6,74.4,30.14,WSW,248,10.0,10.0,87,0.00,,,0.00,Wunderground v.1.15,2013-06-25 04:01:00,
2013-06-25 00:05:00,78.6,74.7,30.14,SW,214,8.0,10.0,88,0.00,,,0.00,Wunderground v.1.15,2013-06-25 04:05:00,
2013-06-25 00:10:00,78.6,74.4,30.14,West,271,8.0,13.0,87,0.00,,,0.00,Wunderground v.1.15,2013-06-25 04:10:00,
2013-06-25 00:20:00,78.7,74.5,30.14,West,271,11.0,11.0,87,0.00,,,0.00,Wunderground v.1.15,2013-06-25 04:20:00,
2013-06-25 00:25:00,78.7,74.5,30.14,West,261,10.0,11.0,87,0.00,,,0.00,Wunderground v.1.15,2013-06-25 04:25:00,
2013-06-25 00:30:00,78.7,74.5,30.14,WSW,248,10.0,13.0,87,0.00,,,0.00,Wunderground v.1.15,2013-06-25 04:30:00,
2013-06-25 00:35:00,78.7,74.5,30.14,WSW,252,11.0,13.0,87,0.00,,,0.00,Wunderground v.1.15,2013-06-25 04:35:00,
2013-06-25 00:40:00,78.6,74.7,30.14,WSW,253,10.0,12.0,88,0.00,,,0.00,Wunderground v.1.15,2013-06-25 04:40:00,
2013-06-25 00:50:00,78.6,74.7,30.14,WSW,238,10.0,10.0,88,0.00,,,0.00,Wunderground v.1.15,2013-06-25 04:50:00,
2013-06-25 00:55:00,78.6,74.7,30.14,West,275,11.0,11.0,88,0.00,,,0.00,Wunderground v.1.15,2013-06-25 04:55:00,
2013-06-25 01:00:00,78.5,74.6,30.14,WSW,245,11.0,11.0,88,0.00,,,0.00,Wunderground v.1.15,2013-06-25 05:00:00,
2013-06-25 01:10:00,78.5,74.6,30.13,WSW,251,9.0,9.0,88,0.00,,,0.00,Wunderground v.1.15,2013-06-25 05:10:00,
2013-06-25 01:15:00,78.5,74.6,30.13,West,267,8.0,9.0,88,0.00,,,0.00,Wunderground v.1.15,2013-06-25 05:15:00,
2013-06-25 01:20:00,78.4,74.5,30.13,WSW,253,8.0,8.0,88,0.00,,,0.00,Wunderground v.1.15,2013-06-25 05:20:00,
2013-06-25 01:25:00,78.4,74.5,30.13,WSW,238,8.0,8.0,88,0.00,,,0.00,Wunderground v.1.15,2013-06-25 05:25:00,
2013-06-25 01:30:00,78.4,74.5,30.14,SW,218,8.0,8.0,88,0.00,,,0.00,Wunderground v.1.15,2013-06-25 05:30:00,
2013-06-25 01:35:00,78.4,74.5,30.13,WSW,248,8.0,10.0,88,0.00,,,0.00,Wunderground v.1.15,2013-06-25 05:35:00,
2013-06-25 01:40:00,78.4,74.5,30.13,West,259,9.0,9.0,88,0.00,,,0.00,Wunderground v.1.15,2013-06-25 05:40:00,
2013-06-25 01:50:00,78.4,74.5,30.13,WSW,244,10.0,10.0,88,0.00,,,0.00,Wunderground v.1.15,2013-06-25 05:50:00,
2013-06-25 01:55:00,78.3,74.5,30.13,WSW,253,8.0,10.0,88,0.00,,,0.00,Wunderground v.1.15,2013-06-25 05:55:00,
2013-06-25 02:00:00,78.3,74.5,30.13,West,281,8.0,8.0,88,0.00,,,0.00,Wunderground v.1.15,2013-06-25 06:00:00,
2013-06-25 02:10:00,78.3,74.5,30.13,WNW,283,8.0,8.0,88,0.00,,,0.00,Wunderground v.1.15,2013-06-25 06:10:00,
2013-06-25 02:15:00,78.2,74.4,30.12,WSW,245,7.0,8.0,88,0.00,,,0.00,Wunderground v.1.15,2013-06-25 06:15:00,
2013-06-25 02:20:00,78.1,74.3,30.12,West,271,5.0,6.0,88,0.00,,,0.00,Wunderground v.1.15,2013-06-25 06:20:00,
2013-06-25 02:30:00,78.2,74.4,30.12,South,188,8.0,9.0,88,0.00,,,0.00,Wunderground v.1.15,2013-06-25 06:30:00,
2013-06-25 02:35:00,78.2,74.4,30.12,WSW,244,8.0,9.0,88,0.00,,,0.00,Wunderground v.1.15,2013-06-25 06:35:00,
2013-06-25 02:40:00,78.2,74.4,30.12,SW,226,8.0,8.0,88,0.00,,,0.00,Wunderground v.1.15,2013-06-25 06:40:00,
2013-06-25 02:45:00,78.2,74.4,30.12,West,276,7.0,8.0,88,0.00,,,0.00,Wunderground v.1.15,2013-06-25 06:45:00,
2013-06-25 02:55:00,78.2,74.7,30.12,WNW,283,7.0,9.0,89,0.00,,,0.00,Wunderground v.1.15,2013-06-25 06:55:00,
2013-06-25 03:00:00,78.2,74.7,30.13,West,274,7.0,7.0,89,0.00,,,0.00,Wunderground v.1.15,2013-06-25 07:00:00,
2013-06-25 03:10:00,78.3,74.8,30.13,West,267,9.0,10.0,89,0.00,,,0.00,Wunderground v.1.15,2013-06-25 07:10:00,
2013-06-25 03:15:00,78.2,74.7,30.12,WSW,250,9.0,10.0,89,0.00,,,0.00,Wunderground v.1.15,2013-06-25 07:15:00,
2013-06-25 03:20:00,78.1,74.6,30.12,West,267,8.0,8.0,89,0.00,,,0.00,Wunderground v.1.15,2013-06-25 07:20:00,
2013-06-25 03:25:00,78.0,74.5,30.12,West,271,8.0,9.0,89,0.00,,,0.00,Wunderground v.1.15,2013-06-25 07:25:00,
2013-06-25 03:30:00,78.0,74.2,30.12,West,269,8.0,8.0,88,0.00,,,0.00,Wunderground v.1.15,2013-06-25 07:30:00,
2013-06-25 03:40:00,78.0,74.2,30.12,West,264,9.0,9.0,88,0.00,,,0.00,Wunderground v.1.15,2013-06-25 07:40:00,
2013-06-25 03:45:00,78.0,74.2,30.12,WSW,246,9.0,10.0,88,0.00,,,0.00,Wunderground v.1.15,2013-06-25 07:45:00,
2013-06-25 03:50:00,78.0,74.2,30.12,West,266,9.0,12.0,88,0.00,,,0.00,Wunderground v.1.15,2013-06-25 07:50:00,
2013-06-25 03:55:00,78.0,74.2,30.12,WSW,256,9.0,12.0,88,0.00,,,0.00,Wunderground v.1.15,2013-06-25 07:55:00,
2013-06-25 04:00:00,78.0,74.2,30.12,WSW,256,9.0,9.0,88,0.00,,,0.00,Wunderground v.1.15,2013-06-25 08:00:00,
2013-06-25 04:10:00,78.0,74.5,30.12,WSW,253,9.0,9.0,89,0.00,,,0.00,Wunderground v.1.15,2013-06-25 08:10:00,
2013-06-25 04:15:00,77.9,74.4,30.12,West,277,8.0,9.0,89,0.00,,,0.00,Wunderground v.1.15,2013-06-25 08:15:00,
2013-06-25 04:20:00,77.9,74.4,30.12,West,261,7.0,7.0,89,0.00,,,0.00,Wunderground v.1.15,2013-06-25 08:20:00,
2013-06-25 04:25:00,77.8,74.3,30.12,West,269,7.0,7.0,89,0.00,,,0.00,Wunderground v.1.15,2013-06-25 08:25:00,
2013-06-25 04:30:00,77.8,74.3,30.12,WSW,243,7.0,7.0,89,0.00,,,0.00,Wunderground v.1.15,2013-06-25 08:30:00,
2013-06-25 04:35:00,77.8,74.3,30.12,WNW,283,7.0,7.0,89,0.00,,,0.00,Wunderground v.1.15,2013-06-25 08:35:00,
2013-06-25 04:45:00,77.7,74.2,30.12,West,279,7.0,7.0,89,0.00,,,0.00,Wunderground v.1.15,2013-06-25 08:45:00,
2013-06-25 04:50:00,77.6,74.4,30.12,West,260,6.0,6.0,90,0.00,,,0.00,Wunderground v.1.15,2013-06-25 08:50:00,
2013-06-25 04:55:00,77.6,74.4,30.12,WSW,250,5.0,6.0,90,0.00,,,0.00,Wunderground v.1.15,2013-06-25 08:55:00,
2013-06-25 05:00:00,77.7,74.5,30.12,West,263,6.0,6.0,90,0.00,,,0.00,Wunderground v.1.15,2013-06-25 09:00:00,
2013-06-25 05:10:00,77.7,74.5,30.11,WSW,250,6.0,6.0,90,0.00,,,0.00,Wunderground v.1.15,2013-06-25 09:10:00,
2013-06-25 05:15:00,77.8,74.6,30.11,WSW,238,5.0,7.0,90,0.00,,,0.00,Wunderground v.1.15,2013-06-25 09:15:00,
2013-06-25 05:25:00,77.8,74.6,30.12,WSW,250,6.0,8.0,90,0.00,,,0.00,Wunderground v.1.15,2013-06-25 09:25:00,
2013-06-25 05:30:00,77.8,74.6,30.12,West,264,6.0,6.0,90,0.00,,,0.00,Wunderground v.1.15,2013-06-25 09:30:00,
2013-06-25 05:35:00,77.8,74.6,30.12,West,264,5.0,6.0,90,0.00,,,0.00,Wunderground v.1.15,2013-06-25 09:35:00,
2013-06-25 05:40:00,77.7,74.9,30.12,WSW,242,4.0,5.0,91,0.00,,,0.00,Wunderground v.1.15,2013-06-25 09:40:00,
2013-06-25 05:50:00,77.5,74.7,30.12,WSW,254,4.0,4.0,91,0.00,,,0.00,Wunderground v.1.15,2013-06-25 09:50:00,
2013-06-25 05:55:00,77.5,75.0,30.12,WSW,243,4.0,6.0,92,0.00,,,0.00,Wunderground v.1.15,2013-06-25 09:55:00,
2013-06-25 06:00:00,77.4,74.9,30.13,WSW,258,4.0,4.0,92,0.00,,,0.00,Wunderground v.1.15,2013-06-25 10:00:00,
2013-06-25 06:10:00,77.6,75.1,30.13,West,276,4.0,4.0,92,0.00,,,0.00,Wunderground v.1.15,2013-06-25 10:10:00,
2013-06-25 06:15:00,77.7,75.2,30.13,West,266,4.0,4.0,92,0.00,,,0.00,Wunderground v.1.15,2013-06-25 10:15:00,
2013-06-25 06:20:00,77.7,75.2,30.13,West,276,5.0,5.0,92,0.00,,,0.00,Wunderground v.1.15,2013-06-25 10:20:00,
2013-06-25 06:30:00,77.7,75.2,30.13,West,276,4.0,4.0,92,0.00,,,0.00,Wunderground v.1.15,2013-06-25 10:30:00,
2013-06-25 06:35:00,77.7,75.2,30.13,West,277,4.0,4.0,92,0.00,,,0.00,Wunderground v.1.15,2013-06-25 10:35:00,
2013-06-25 06:40:00,77.8,75.3,30.13,West,260,4.0,4.0,92,0.00,,,0.00,Wunderground v.1.15,2013-06-25 10:40:00,
2013-06-25 06:45:00,77.8,75.3,30.13,WSW,258,4.0,4.0,92,0.00,,,0.00,Wunderground v.1.15,2013-06-25 10:45:00,
2013-06-25 06:55:00,78.0,75.5,30.13,West,279,4.0,4.0,92,0.00,,,0.00,Wunderground v.1.15,2013-06-25 10:55:00,
2013-06-25 07:00:00,78.1,75.6,30.13,WSW,245,5.0,7.0,92,0.00,,,0.00,Wunderground v.1.15,2013-06-25 11:00:00,
2013-06-25 07:10:00,78.5,75.7,30.13,WNW,285,4.0,4.0,91,0.00,,,0.00,Wunderground v.1.15,2013-06-25 11:10:00,
2013-06-25 07:15:00,78.7,75.8,30.13,West,271,3.0,6.0,91,0.00,,,0.00,Wunderground v.1.15,2013-06-25 11:15:00,
2013-06-25 07:20:00,79.0,75.8,30.13,West,271,4.0,4.0,90,0.00,,,0.00,Wunderground v.1.15,2013-06-25 11:20:00,
2013-06-25 07:25:00,79.2,75.7,30.13,SW,228,4.0,6.0,89,0.00,,,0.00,Wunderground v.1.15,2013-06-25 11:25:00,
2013-06-25 07:30:00,79.3,75.8,30.13,West,270,4.0,10.0,89,0.00,,,0.00,WUHU216DAVISVP2,2013-06-25 11:30:00,
2013-06-25 07:35:00,79.5,75.6,30.13,WSW,255,6.0,6.0,88,0.00,,,0.00,Wunderground v.1.15,2013-06-25 11:35:00,
2013-06-25 07:40:00,79.6,76.1,30.13,West,259,7.0,7.0,89,0.00,,,0.00,Wunderground v.1.15,2013-06-25 11:40:00,
2013-06-25 07:45:00,79.6,75.7,30.13,West,259,7.0,7.0,88,0.00,,,0.00,Wunderground v.1.15,2013-06-25 11:45:00,
2013-06-25 07:55:00,79.5,75.6,30.13,SW,226,6.0,9.0,88,0.00,,,0.00,Wunderground v.1.15,2013-06-25 11:55:00,
2013-06-25 08:00:00,79.4,75.5,30.14,WSW,245,5.0,10.0,88,0.00,,,0.00,Wunderground v.1.15,2013-06-25 12:00:00,
2013-06-25 08:10:00,79.1,75.6,30.13,WSW,242,9.0,9.0,89,0.00,,,0.00,Wunderground v.1.15,2013-06-25 12:10:00,
2013-06-25 08:15:00,79.0,75.5,30.14,WNW,303,10.0,10.0,89,0.00,,,0.00,Wunderground v.1.15,2013-06-25 12:15:00,
2013-06-25 08:20:00,77.0,72.8,30.14,WNW,303,10.0,10.0,87,0.00,,,0.01,Wunderground v.1.15,2013-06-25 12:20:00,
2013-06-25 08:30:00,74.7,71.6,30.14,WNW,285,7.0,7.0,90,0.00,,,0.01,Wunderground v.1.15,2013-06-25 12:30:00,
2013-06-25 08:35:00,74.2,71.4,30.14,West,278,6.0,7.0,91,0.00,,,0.01,Wunderground v.1.15,2013-06-25 12:35:00,
2013-06-25 08:40:00,74.1,71.3,30.14,West,273,5.0,5.0,91,0.00,,,0.01,Wunderground v.1.15,2013-06-25 12:40:00,
2013-06-25 08:45:00,74.0,70.9,30.14,West,266,4.0,5.0,90,0.00,,,0.01,Wunderground v.1.15,2013-06-25 12:45:00,
2013-06-25 08:54:00,74.5,71.4,30.14,WNW,286,6.0,10.0,90,0.00,,,0.01,WUHU216DAVISVP2,2013-06-25 12:54:00,
2013-06-25 09:00:00,74.7,71.6,30.14,West,270,5.0,10.0,90,0.01,,,0.01,WUHU216DAVISVP2,2013-06-25 13:00:00,
2013-06-25 09:08:00,75.0,70.9,30.13,West,271,5.0,9.0,87,0.00,,,0.02,WUHU216DAVISVP2,2013-06-25 13:08:00,
2013-06-25 09:13:00,75.3,71.2,30.14,West,259,4.0,9.0,87,0.01,,,0.02,WUHU216DAVISVP2,2013-06-25 13:13:00,
2013-06-25 09:18:00,75.4,71.6,30.14,West,273,5.0,9.0,88,0.01,,,0.02,WUHU216DAVISVP2,2013-06-25 13:18:00,
2013-06-25 09:23:00,75.7,72.2,30.14,West,262,5.0,9.0,89,0.01,,,0.02,WUHU216DAVISVP2,2013-06-25 13:23:00,
2013-06-25 09:28:00,75.8,72.3,30.14,West,264,7.0,9.0,89,0.01,,,0.02,WUHU216DAVISVP2,2013-06-25 13:28:00,
2013-06-25 09:30:00,75.9,72.8,30.14,West,270,5.0,9.0,90,0.01,,,0.02,WUHU216DAVISVP2,2013-06-25 13:30:00,
2013-06-25 09:33:00,75.9,73.1,30.14,West,278,9.0,12.0,91,0.02,,,0.03,WUHU216DAVISVP2,2013-06-25 13:33:00,
2013-06-25 09:38:00,75.8,72.6,30.14,West,276,5.0,12.0,90,0.02,,,0.03,WUHU216DAVISVP2,2013-06-25 13:38:00,
2013-06-25 09:43:00,75.9,72.4,30.13,West,275,5.0,12.0,89,0.02,,,0.03,WUHU216DAVISVP2,2013-06-25 13:43:00,
2013-06-25 09:48:00,76.2,73.0,30.14,West,276,8.0,12.0,90,0.02,,,0.03,WUHU216DAVISVP2,2013-06-25 13:48:00,
2013-06-25 09:53:00,76.4,73.2,30.13,West,271,5.0,10.0,90,0.02,,,0.03,WUHU216DAVISVP2,2013-06-25 13:53:00,
2013-06-25 09:58:00,76.8,74.0,30.13,WSW,243,5.0,9.0,91,0.01,,,0.03,WUHU216DAVISVP2,2013-06-25 13:58:00,
2013-06-25 10:00:00,77.0,74.2,30.13,West,270,6.0,12.0,91,0.00,,,0.02,WUHU216DAVISVP2,2013-06-25 14:00:00,
2013-06-25 10:03:00,77.5,75.0,30.13,West,270,4.0,9.0,92,0.01,,,0.03,WUHU216DAVISVP2,2013-06-25 14:03:00,
2013-06-25 10:08:00,78.1,75.2,30.13,South,183,5.0,8.0,91,0.01,,,0.03,WUHU216DAVISVP2,2013-06-25 14:08:00,
2013-06-25 10:13:00,78.9,76.0,30.13,West,260,4.0,8.0,91,0.01,,,0.03,WUHU216DAVISVP2,2013-06-25 14:13:00,
2013-06-25 10:18:00,79.3,76.1,30.13,West,266,7.0,10.0,90,0.01,,,0.03,WUHU216DAVISVP2,2013-06-25 14:18:00,
2013-06-25 10:23:00,79.9,76.7,30.13,SW,221,4.0,12.0,90,0.01,,,0.03,WUHU216DAVISVP2,2013-06-25 14:23:00,
2013-06-25 10:28:00,80.3,76.4,30.13,WSW,248,7.0,12.0,88,0.01,,,0.03,WUHU216DAVISVP2,2013-06-25 14:28:00,
2013-06-25 10:30:00,80.4,76.5,30.13,West,270,6.0,15.0,88,0.01,,,0.03,WUHU216DAVISVP2,2013-06-25 14:30:00,
2013-06-25 10:33:00,80.7,76.8,30.12,West,269,9.0,15.0,88,0.00,,,0.03,WUHU216DAVISVP2,2013-06-25 14:33:00,
2013-06-25 10:38:00,80.6,76.1,30.12,West,264,12.0,19.0,86,0.00,,,0.03,WUHU216DAVISVP2,2013-06-25 14:38:00,
2013-06-25 10:43:00,80.9,76.3,30.12,WSW,243,14.0,19.0,86,0.00,,,0.03,WUHU216DAVISVP2,2013-06-25 14:43:00,
2013-06-25 10:48:00,80.9,76.4,30.12,WSW,258,13.0,20.0,86,0.00,,,0.03,WUHU216DAVISVP2,2013-06-25 14:48:00,
2013-06-25 10:53:00,81.2,76.3,30.12,WSW,254,12.0,20.0,85,0.00,,,0.03,WUHU216DAVISVP2,2013-06-25 14:53:00,
2013-06-25 10:58:00,81.5,76.3,30.12,West,270,14.0,20.0,84,0.00,,,0.03,WUHU216DAVISVP2,2013-06-25 14:58:00,
2013-06-25 11:00:00,81.4,76.5,30.12,West,270,11.0,20.0,85,0.00,,,0.03,WUHU216DAVISVP2,2013-06-25 15:00:00,
2013-06-25 11:03:00,81.3,76.4,30.13,West,259,12.0,20.0,85,0.00,,,0.03,WUHU216DAVISVP2,2013-06-25 15:03:00,
2013-06-25 11:08:00,81.1,76.2,30.13,WSW,257,9.0,18.0,85,0.00,,,0.03,WUHU216DAVISVP2,2013-06-25 15:08:00,
2013-06-25 11:13:00,81.0,76.1,30.13,WSW,255,13.0,18.0,85,0.00,,,0.03,WUHU216DAVISVP2,2013-06-25 15:13:00,
2013-06-25 11:18:00,80.9,76.4,30.13,West,264,9.0,18.0,86,0.00,,,0.03,WUHU216DAVISVP2,2013-06-25 15:18:00,
2013-06-25 11:23:00,80.9,76.0,30.13,WSW,252,12.0,17.0,85,0.00,,,0.03,WUHU216DAVISVP2,2013-06-25 15:23:00,
2013-06-25 11:28:00,81.0,76.5,30.13,WSW,238,6.0,17.0,86,0.00,,,0.03,WUHU216DAVISVP2,2013-06-25 15:28:00,
2013-06-25 11:30:00,81.0,76.4,30.13,West,270,11.0,18.0,86,0.00,,,0.03,WUHU216DAVISVP2,2013-06-25 15:30:00,
2013-06-25 11:33:00,81.2,76.3,30.13,West,267,9.0,21.0,85,0.00,,,0.03,WUHU216DAVISVP2,2013-06-25 15:33:00,
2013-06-25 11:38:00,81.5,76.6,30.13,SW,224,9.0,21.0,85,0.00,,,0.03,WUHU216DAVISVP2,2013-06-25 15:38:00,
2013-06-25 11:43:00,81.7,76.5,30.13,SW,221,15.0,21.0,84,0.00,,,0.03,WUHU216DAVISVP2,2013-06-25 15:43:00,
2013-06-25 11:48:00,81.5,76.2,30.13,West,262,10.0,21.0,84,0.00,,,0.03,WUHU216DAVISVP2,2013-06-25 15:48:00,
2013-06-25 11:53:00,81.5,76.2,30.13,West,278,6.0,19.0,84,0.00,,,0.03,WUHU216DAVISVP2,2013-06-25 15:53:00,
2013-06-25 11:58:00,81.8,76.6,30.13,West,261,13.0,19.0,84,0.00,,,0.03,WUHU216DAVISVP2,2013-06-25 15:58:00,
2013-06-25 12:00:00,81.8,75.8,30.13,WSW,248,12.0,21.0,82,0.00,,,0.03,WUHU216DAVISVP2,2013-06-25 16:00:00,
2013-06-25 12:03:00,81.9,76.3,30.13,West,265,10.0,19.0,83,0.00,,,0.03,WUHU216DAVISVP2,2013-06-25 16:03:00,
2013-06-25 12:08:00,81.9,76.0,30.13,West,271,10.0,17.0,82,0.00,,,0.03,WUHU216DAVISVP2,2013-06-25 16:08:00,
2013-06-25 12:13:00,81.9,76.3,30.13,WSW,257,10.0,16.0,83,0.00,,,0.03,WUHU216DAVISVP2,2013-06-25 16:13:00,
2013-06-25 12:18:00,81.8,75.9,30.12,SW,231,13.0,18.0,82,0.00,,,0.03,WUHU216DAVISVP2,2013-06-25 16:18:00,
2013-06-25 12:23:00,82.1,76.2,30.13,WSW,257,7.0,18.0,82,0.00,,,0.03,WUHU216DAVISVP2,2013-06-25 16:23:00,
2013-06-25 12:28:00,82.5,76.2,30.13,WSW,240,11.0,19.0,81,0.00,,,0.03,WUHU216DAVISVP2,2013-06-25 16:28:00,
2013-06-25 12:30:00,82.5,76.4,30.12,West,270,11.0,19.0,82,0.00,,,0.03,WUHU216DAVISVP2,2013-06-25 16:30:00,
2013-06-25 12:33:00,82.8,76.4,30.12,SW,236,9.0,19.0,81,0.00,,,0.03,WUHU216DAVISVP2,2013-06-25 16:33:00,
2013-06-25 12:38:00,82.9,76.6,30.12,SSW,207,10.0,19.0,81,0.00,,,0.03,WUHU216DAVISVP2,2013-06-25 16:38:00,
2013-06-25 12:43:00,83.0,76.3,30.12,WSW,242,9.0,19.0,80,0.00,,,0.03,WUHU216DAVISVP2,2013-06-25 16:43:00,
2013-06-25 12:48:00,83.2,76.0,30.12,SW,221,12.0,19.0,79,0.00,,,0.03,WUHU216DAVISVP2,2013-06-25 16:48:00,
2013-06-25 12:53:00,83.4,76.3,30.12,West,267,14.0,19.0,79,0.00,,,0.03,WUHU216DAVISVP2,2013-06-25 16:53:00,
2013-06-25 12:58:00,83.5,77.1,30.12,West,263,15.0,20.0,81,0.00,,,0.03,WUHU216DAVISVP2,2013-06-25 16:58:00,
2013-06-25 13:00:00,83.2,76.0,30.12,WSW,248,10.0,20.0,79,0.00,,,0.03,WUHU216DAVISVP2,2013-06-25 17:00:00,
2013-06-25 13:03:00,83.0,76.3,30.12,West,276,13.0,20.0,80,0.00,,,0.03,WUHU216DAVISVP2,2013-06-25 17:03:00,
2013-06-25 13:08:00,83.4,77.0,30.11,SW,230,11.0,20.0,81,0.00,,,0.03,WUHU216DAVISVP2,2013-06-25 17:08:00,
2013-06-25 13:13:00,83.5,76.3,30.11,WSW,243,7.0,20.0,79,0.00,,,0.03,WUHU216DAVISVP2,2013-06-25 17:13:00,
2013-06-25 13:18:00,83.2,76.9,30.11,WSW,257,11.0,20.0,81,0.00,,,0.03,WUHU216DAVISVP2,2013-06-25 17:18:00,
2013-06-25 13:23:00,83.7,76.6,30.11,WSW,252,7.0,20.0,79,0.00,,,0.03,WUHU216DAVISVP2,2013-06-25 17:23:00,
2013-06-25 13:28:00,83.4,76.3,30.11,WNW,288,14.0,20.0,79,0.00,,,0.03,WUHU216DAVISVP2,2013-06-25 17:28:00,
2013-06-25 13:30:00,83.3,76.1,30.11,West,270,11.0,20.0,79,0.00,,,0.03,WUHU216DAVISVP2,2013-06-25 17:30:00,
2013-06-25 13:33:00,83.1,76.3,30.11,WSW,240,16.0,20.0,80,0.00,,,0.03,WUHU216DAVISVP2,2013-06-25 17:33:00,
2013-06-25 13:38:00,83.0,76.3,30.11,WSW,257,14.0,20.0,80,0.00,,,0.03,WUHU216DAVISVP2,2013-06-25 17:38:00,
2013-06-25 13:43:00,83.1,76.4,30.11,West,272,8.0,20.0,80,0.00,,,0.03,WUHU216DAVISVP2,2013-06-25 17:43:00,
2013-06-25 13:48:00,83.3,76.2,30.11,WSW,247,9.0,21.0,79,0.00,,,0.03,WUHU216DAVISVP2,2013-06-25 17:48:00,
2013-06-25 13:53:00,83.3,76.6,30.10,West,269,4.0,21.0,80,0.00,,,0.03,WUHU216DAVISVP2,2013-06-25 17:53:00,
2013-06-25 13:58:00,83.3,75.9,30.10,West,262,17.0,23.0,78,0.00,,,0.03,WUHU216DAVISVP2,2013-06-25 17:58:00,
2013-06-25 14:00:00,83.2,76.0,30.10,WSW,248,13.0,23.0,79,0.00,,,0.03,WUHU216DAVISVP2,2013-06-25 18:00:00,
2013-06-25 14:03:00,82.9,75.9,30.10,WSW,249,16.0,23.0,79,0.00,,,0.03,WUHU216DAVISVP2,2013-06-25 18:03:00,
2013-06-25 14:08:00,83.2,76.5,30.10,WSW,252,18.0,23.0,80,0.00,,,0.03,WUHU216DAVISVP2,2013-06-25 18:08:00,
2013-06-25 14:13:00,83.4,76.7,30.09,SW,226,14.0,23.0,80,0.00,,,0.03,WUHU216DAVISVP2,2013-06-25 18:13:00,
2013-06-25 14:18:00,83.2,76.1,30.09,South,186,10.0,22.0,79,0.00,,,0.03,WUHU216DAVISVP2,2013-06-25 18:18:00,
2013-06-25 14:23:00,83.3,75.9,30.09,West,259,14.0,20.0,78,0.00,,,0.03,WUHU216DAVISVP2,2013-06-25 18:23:00,
2013-06-25 14:28:00,83.2,76.1,30.09,WSW,255,16.0,20.0,79,0.00,,,0.03,WUHU216DAVISVP2,2013-06-25 18:28:00,
2013-06-25 14:30:00,83.0,75.4,30.09,WSW,248,12.0,23.0,78,0.00,,,0.03,WUHU216DAVISVP2,2013-06-25 18:30:00,
2013-06-25 14:33:00,83.0,75.4,30.09,SW,218,15.0,20.0,78,0.00,,,0.03,WUHU216DAVISVP2,2013-06-25 18:33:00,
2013-06-25 14:38:00,82.4,75.7,30.09,SW,216,11.0,20.0,80,0.00,,,0.03,WUHU216DAVISVP2,2013-06-25 18:38:00,
2013-06-25 14:43:00,82.0,76.1,30.08,WSW,246,8.0,20.0,82,0.00,,,0.03,WUHU216DAVISVP2,2013-06-25 18:43:00,
2013-06-25 14:48:00,82.0,76.1,30.08,SW,228,11.0,19.0,82,0.00,,,0.03,WUHU216DAVISVP2,2013-06-25 18:48:00,
2013-06-25 14:53:00,82.5,76.2,30.08,WSW,242,8.0,19.0,81,0.00,,,0.03,WUHU216DAVISVP2,2013-06-25 18:53:00,
2013-06-25 14:58:00,83.4,76.6,30.08,West,274,6.0,18.0,80,0.00,,,0.03,WUHU216DAVISVP2,2013-06-25 18:58:00,
2013-06-25 15:00:00,83.5,76.7,30.08,WSW,248,10.0,19.0,80,0.00,,,0.03,WUHU216DAVISVP2,2013-06-25 19:00:00,
2013-06-25 15:03:00,83.5,76.1,30.08,WSW,250,17.0,18.0,78,0.00,,,0.03,WUHU216DAVISVP2,2013-06-25 19:03:00,
2013-06-25 15:08:00,83.2,75.8,30.08,West,259,9.0,19.0,78,0.00,,,0.03,WUHU216DAVISVP2,2013-06-25 19:08:00,
2013-06-25 15:13:00,83.3,75.7,30.07,West,261,13.0,19.0,78,0.00,,,0.03,WUHU216DAVISVP2,2013-06-25 19:13:00,
2013-06-25 15:18:00,83.4,76.0,30.07,West,263,9.0,19.0,78,0.00,,,0.03,WUHU216DAVISVP2,2013-06-25 19:18:00,
2013-06-25 15:23:00,84.0,76.2,30.07,West,277,11.0,19.0,77,0.00,,,0.03,WUHU216DAVISVP2,2013-06-25 19:23:00,
2013-06-25 15:28:00,83.5,74.9,30.07,WSW,252,11.0,19.0,75,0.00,,,0.03,WUHU216DAVISVP2,2013-06-25 19:28:00,
2013-06-25 15:30:00,83.4,74.6,30.07,WSW,248,12.0,19.0,75,0.00,,,0.03,WUHU216DAVISVP2,2013-06-25 19:30:00,
2013-06-25 15:33:00,83.3,75.5,30.07,WSW,243,14.0,19.0,77,0.00,,,0.03,WUHU216DAVISVP2,2013-06-25 19:33:00,
2013-06-25 15:38:00,83.7,76.3,30.07,West,263,13.0,19.0,78,0.00,,,0.03,WUHU216DAVISVP2,2013-06-25 19:38:00,
2013-06-25 15:43:00,83.5,76.1,30.07,WSW,255,18.0,19.0,78,0.00,,,0.03,WUHU216DAVISVP2,2013-06-25 19:43:00,
2013-06-25 15:48:00,83.7,75.7,30.07,SW,224,13.0,19.0,77,0.00,,,0.03,WUHU216DAVISVP2,2013-06-25 19:48:00,
2013-06-25 15:53:00,83.7,75.9,30.06,WSW,242,6.0,18.0,77,0.00,,,0.03,WUHU216DAVISVP2,2013-06-25 19:53:00,
2013-06-25 15:58:00,84.1,75.9,30.06,West,264,6.0,18.0,76,0.00,,,0.03,WUHU216DAVISVP2,2013-06-25 19:58:00,
2013-06-25 16:00:00,84.2,75.4,30.06,West,270,11.0,19.0,75,0.00,,,0.03,WUHU216DAVISVP2,2013-06-25 20:00:00,
2013-06-25 16:03:00,83.7,75.5,30.07,WSW,253,10.0,18.0,76,0.00,,,0.03,WUHU216DAVISVP2,2013-06-25 20:03:00,
2013-06-25 16:08:00,84.1,75.5,30.06,WSW,245,11.0,18.0,75,0.00,,,0.03,WUHU216DAVISVP2,2013-06-25 20:08:00,
2013-06-25 16:13:00,84.1,75.3,30.06,WSW,257,12.0,18.0,75,0.00,,,0.03,WUHU216DAVISVP2,2013-06-25 20:13:00,
2013-06-25 16:18:00,84.2,75.6,30.06,SW,229,12.0,19.0,75,0.00,,,0.03,WUHU216DAVISVP2,2013-06-25 20:18:00,
2013-06-25 16:23:00,84.1,75.9,30.06,West,273,13.0,19.0,76,0.00,,,0.03,WUHU216DAVISVP2,2013-06-25 20:23:00,
2013-06-25 16:28:00,84.1,75.5,30.06,WSW,248,10.0,19.0,75,0.00,,,0.03,WUHU216DAVISVP2,2013-06-25 20:28:00,
2013-06-25 16:30:00,83.9,75.5,30.06,WSW,248,10.0,21.0,76,0.00,,,0.03,WUHU216DAVISVP2,2013-06-25 20:30:00,
2013-06-25 16:33:00,83.8,75.8,30.06,West,261,12.0,21.0,77,0.00,,,0.03,WUHU216DAVISVP2,2013-06-25 20:33:00,
2013-06-25 16:38:00,83.3,75.3,30.06,West,266,17.0,21.0,77,0.00,,,0.03,WUHU216DAVISVP2,2013-06-25 20:38:00,
2013-06-25 16:43:00,83.4,75.6,30.05,West,274,8.0,21.0,77,0.00,,,0.03,WUHU216DAVISVP2,2013-06-25 20:43:00,
2013-06-25 16:48:00,83.3,75.1,30.05,WSW,241,6.0,21.0,76,0.00,,,0.03,WUHU216DAVISVP2,2013-06-25 20:48:00,
2013-06-25 16:53:00,83.1,74.9,30.04,West,271,4.0,19.0,76,0.00,,,0.03,WUHU216DAVISVP2,2013-06-25 20:53:00,
2013-06-25 16:58:00,83.4,74.8,30.05,WSW,256,10.0,19.0,75,0.00,,,0.03,WUHU216DAVISVP2,2013-06-25 20:58:00,
2013-06-25 17:00:00,83.4,75.0,30.05,WSW,248,11.0,19.0,76,0.00,,,0.03,WUHU216DAVISVP2,2013-06-25 21:00:00,
2013-06-25 17:03:00,83.6,75.4,30.04,WNW,285,4.0,19.0,76,0.00,,,0.03,WUHU216DAVISVP2,2013-06-25 21:03:00,
2013-06-25 17:08:00,83.5,75.5,30.04,SW,231,13.0,19.0,77,0.00,,,0.03,WUHU216DAVISVP2,2013-06-25 21:08:00,
2013-06-25 17:13:00,82.8,75.6,30.05,SW,227,11.0,17.0,79,0.00,,,0.03,WUHU216DAVISVP2,2013-06-25 21:13:00,
2013-06-25 17:18:00,82.4,75.7,30.05,SSW,205,13.0,18.0,80,0.00,,,0.03,WUHU216DAVISVP2,2013-06-25 21:18:00,
2013-06-25 17:23:00,82.3,76.0,30.04,SSW,211,11.0,19.0,81,0.00,,,0.03,WUHU216DAVISVP2,2013-06-25 21:23:00,
2013-06-25 17:28:00,82.2,75.5,30.04,SW,230,9.0,19.0,80,0.00,,,0.03,WUHU216DAVISVP2,2013-06-25 21:28:00,
2013-06-25 17:30:00,82.2,75.8,30.04,SW,225,10.0,19.0,81,0.00,,,0.03,WUHU216DAVISVP2,2013-06-25 21:30:00,
2013-06-25 17:33:00,82.1,75.8,30.04,SSW,206,10.0,19.0,81,0.00,,,0.03,WUHU216DAVISVP2,2013-06-25 21:33:00,
2013-06-25 17:38:00,81.6,75.7,30.04,SSE,165,6.0,19.0,82,0.00,,,0.03,WUHU216DAVISVP2,2013-06-25 21:38:00,
2013-06-25 17:44:00,81.3,75.7,30.04,SSW,205,8.0,17.0,83,0.00,,,0.03,WUHU216DAVISVP2,2013-06-25 21:44:00,
2013-06-25 17:49:00,81.3,75.4,30.04,South,179,6.0,17.0,82,0.00,,,0.03,WUHU216DAVISVP2,2013-06-25 21:49:00,
2013-06-25 17:53:00,81.0,75.1,30.04,SSW,210,9.0,17.0,82,0.00,,,0.03,WUHU216DAVISVP2,2013-06-25 21:53:00,
2013-06-25 17:59:00,81.1,74.8,30.04,SW,217,8.0,17.0,81,0.00,,,0.03,WUHU216DAVISVP2,2013-06-25 21:59:00,
2013-06-25 18:00:00,81.1,74.7,30.04,SSW,203,10.0,17.0,81,0.00,,,0.03,WUHU216DAVISVP2,2013-06-25 22:00:00,
2013-06-25 18:04:00,80.8,74.8,30.04,South,169,10.0,17.0,82,0.00,,,0.03,WUHU216DAVISVP2,2013-06-25 22:04:00,
2013-06-25 18:09:00,80.6,75.0,30.04,West,269,4.0,17.0,83,0.00,,,0.03,WUHU216DAVISVP2,2013-06-25 22:09:00,
2013-06-25 18:14:00,80.6,74.3,30.05,West,270,7.0,15.0,81,0.00,,,0.03,WUHU216DAVISVP2,2013-06-25 22:14:00,
2013-06-25 18:18:00,80.6,74.3,30.06,WSW,238,5.0,15.0,81,0.00,,,0.03,WUHU216DAVISVP2,2013-06-25 22:18:00,
2013-06-25 18:23:00,80.5,74.6,30.06,West,266,6.0,13.0,82,0.00,,,0.03,WUHU216DAVISVP2,2013-06-25 22:23:00,
2013-06-25 18:28:00,80.4,74.5,30.06,West,259,5.0,13.0,82,0.00,,,0.03,WUHU216DAVISVP2,2013-06-25 22:28:00,
2013-06-25 18:30:00,80.4,74.4,30.06,WSW,248,7.0,15.0,82,0.00,,,0.03,WUHU216DAVISVP2,2013-06-25 22:30:00,
2013-06-25 18:33:00,80.2,74.6,30.06,West,267,11.0,14.0,83,0.00,,,0.03,WUHU216DAVISVP2,2013-06-25 22:33:00,
2013-06-25 18:38:00,80.1,74.5,30.06,West,260,8.0,14.0,83,0.00,,,0.03,WUHU216DAVISVP2,2013-06-25 22:38:00,
2013-06-25 18:43:00,80.0,74.4,30.07,WSW,257,10.0,14.0,83,0.00,,,0.03,WUHU216DAVISVP2,2013-06-25 22:43:00,
2013-06-25 18:48:00,79.9,74.3,30.07,West,262,5.0,14.0,83,0.00,,,0.03,WUHU216DAVISVP2,2013-06-25 22:48:00,
2013-06-25 18:53:00,79.8,74.6,30.07,West,261,6.0,12.0,84,0.00,,,0.03,WUHU216DAVISVP2,2013-06-25 22:53:00,
2013-06-25 18:58:00,79.8,74.6,30.08,West,272,7.0,12.0,84,0.00,,,0.03,WUHU216DAVISVP2,2013-06-25 22:58:00,
2013-06-25 19:00:00,79.7,74.4,30.08,West,270,8.0,14.0,84,0.00,,,0.03,WUHU216DAVISVP2,2013-06-25 23:00:00,
2013-06-25 19:03:00,79.7,74.8,30.08,WNW,298,2.0,12.0,85,0.00,,,0.03,WUHU216DAVISVP2,2013-06-25 23:03:00,
2013-06-25 19:08:00,79.7,74.8,30.08,NW,321,2.0,11.0,85,0.00,,,0.03,WUHU216DAVISVP2,2013-06-25 23:08:00,
2013-06-25 19:13:00,79.6,74.7,30.08,NNE,25,2.0,10.0,85,0.00,,,0.03,WUHU216DAVISVP2,2013-06-25 23:13:00,
2013-06-25 19:18:00,79.5,73.6,30.08,NW,321,2.0,9.0,82,0.00,,,0.03,WUHU216DAVISVP2,2013-06-25 23:18:00,
2013-06-25 19:23:00,79.2,71.4,30.08,WNW,285,4.0,7.0,77,0.00,,,0.03,WUHU216DAVISVP2,2013-06-25 23:23:00,
2013-06-25 19:28:00,79.2,71.1,30.08,WSW,255,0.0,7.0,76,0.00,,,0.03,WUHU216DAVISVP2,2013-06-25 23:28:00,
2013-06-25 19:30:00,79.2,71.4,30.08,NW,315,3.0,9.0,77,0.00,,,0.03,WUHU216DAVISVP2,2013-06-25 23:30:00,
2013-06-25 19:33:00,79.2,69.6,30.07,SW,233,3.0,6.0,72,0.00,,,0.03,WUHU216DAVISVP2,2013-06-25 23:33:00,
2013-06-25 19:38:00,79.3,70.1,30.07,ESE,112,8.0,10.0,73,0.00,,,0.03,WUHU216DAVISVP2,2013-06-25 23:38:00,
2013-06-25 19:43:00,78.7,70.3,30.06,ESE,110,8.0,13.0,75,0.00,,,0.03,WUHU216DAVISVP2,2013-06-25 23:43:00,
2013-06-25 19:48:00,77.8,68.2,30.06,ESE,122,8.0,14.0,72,0.00,,,0.03,WUHU216DAVISVP2,2013-06-25 23:48:00,
2013-06-25 19:53:00,77.6,69.6,30.06,SE,145,8.0,14.0,76,0.00,,,0.03,WUHU216DAVISVP2,2013-06-25 23:53:00,
2013-06-25 19:58:00,77.9,71.3,30.06,SSE,162,8.0,14.0,80,0.00,,,0.03,WUHU216DAVISVP2,2013-06-25 23:58:00,
2013-06-25 20:00:00,77.8,70.0,30.06,ESE,113,7.0,14.0,77,0.00,,,0.03,WUHU216DAVISVP2,2013-06-26 00:00:00,
2013-06-25 20:03:00,78.5,73.7,30.06,SSW,199,7.0,14.0,85,0.00,,,0.03,WUHU216DAVISVP2,2013-06-26 00:03:00,
2013-06-25 20:08:00,79.0,74.2,30.06,SSW,199,2.0,14.0,85,0.00,,,0.03,WUHU216DAVISVP2,2013-06-26 00:08:00,
2013-06-25 20:13:00,79.2,75.0,30.06,South,173,5.0,14.0,87,0.00,,,0.03,WUHU216DAVISVP2,2013-06-26 00:13:00,
2013-06-25 20:18:00,79.0,74.8,30.06,SSW,203,7.0,10.0,87,0.00,,,0.03,WUHU216DAVISVP2,2013-06-26 00:18:00,
2013-06-25 20:23:00,79.0,75.2,30.06,SSW,196,7.0,10.0,88,0.00,,,0.03,WUHU216DAVISVP2,2013-06-26 00:23:00,
2013-06-25 20:28:00,78.9,75.4,30.06,SSW,201,7.0,10.0,89,0.00,,,0.03,WUHU216DAVISVP2,2013-06-26 00:28:00,
2013-06-25 20:30:00,78.8,75.3,30.06,SSW,203,5.0,10.0,89,0.00,,,0.03,WUHU216DAVISVP2,2013-06-26 00:30:00,
2013-06-25 20:33:00,78.7,75.2,30.06,SW,236,5.0,10.0,89,0.00,,,0.03,WUHU216DAVISVP2,2013-06-26 00:33:00,
2013-06-25 20:38:00,78.8,75.3,30.06,SW,236,6.0,12.0,89,0.00,,,0.03,WUHU216DAVISVP2,2013-06-26 00:38:00,
2013-06-25 20:43:00,78.8,75.0,30.06,WSW,244,3.0,12.0,88,0.00,,,0.03,WUHU216DAVISVP2,2013-06-26 00:43:00,
2013-06-25 20:48:00,78.8,74.9,30.06,SW,233,4.0,12.0,88,0.00,,,0.03,WUHU216DAVISVP2,2013-06-26 00:48:00,
2013-06-25 20:53:00,78.8,74.9,30.06,SSW,205,5.0,12.0,88,0.00,,,0.03,WUHU216DAVISVP2,2013-06-26 00:53:00,
2013-06-25 20:58:00,78.7,74.8,30.06,SSW,207,8.0,9.0,88,0.00,,,0.03,WUHU216DAVISVP2,2013-06-26 00:58:00,
2013-06-25 21:00:00,78.7,74.8,30.06,SW,225,5.0,12.0,88,0.00,,,0.03,WUHU216DAVISVP2,2013-06-26 01:00:00,
2013-06-25 21:03:00,78.7,74.8,30.05,WSW,240,2.0,9.0,88,0.00,,,0.03,WUHU216DAVISVP2,2013-06-26 01:03:00,
2013-06-25 21:08:00,78.8,75.0,30.06,WSW,253,5.0,9.0,88,0.00,,,0.03,WUHU216DAVISVP2,2013-06-26 01:08:00,
2013-06-25 21:13:00,78.8,75.0,30.06,SW,231,7.0,9.0,88,0.00,,,0.03,WUHU216DAVISVP2,2013-06-26 01:13:00,
2013-06-25 21:18:00,78.7,74.9,30.05,SSW,211,5.0,9.0,88,0.00,,,0.03,WUHU216DAVISVP2,2013-06-26 01:18:00,
2013-06-25 21:23:00,78.7,74.9,30.05,SSW,195,10.0,11.0,88,0.00,,,0.03,WUHU216DAVISVP2,2013-06-26 01:23:00,
2013-06-25 21:28:00,78.6,74.8,30.05,South,177,5.0,11.0,88,0.00,,,0.03,WUHU216DAVISVP2,2013-06-26 01:28:00,
2013-06-25 21:30:00,78.6,74.4,30.05,SW,225,5.0,11.0,87,0.00,,,0.03,WUHU216DAVISVP2,2013-06-26 01:30:00,
2013-06-25 21:33:00,78.6,74.4,30.05,SSW,210,6.0,11.0,87,0.00,,,0.03,WUHU216DAVISVP2,2013-06-26 01:33:00,
2013-06-25 21:38:00,78.6,74.4,30.05,WSW,246,7.0,11.0,87,0.00,,,0.03,WUHU216DAVISVP2,2013-06-26 01:38:00,
2013-06-25 21:43:00,78.6,74.4,30.05,West,261,8.0,13.0,87,0.00,,,0.03,WUHU216DAVISVP2,2013-06-26 01:43:00,
2013-06-25 21:48:00,78.6,74.4,30.06,WSW,243,7.0,13.0,87,0.00,,,0.03,WUHU216DAVISVP2,2013-06-26 01:48:00,
2013-06-25 21:53:00,78.6,74.4,30.06,WSW,254,7.0,13.0,87,0.00,,,0.03,WUHU216DAVISVP2,2013-06-26 01:53:00,
2013-06-25 21:58:00,78.6,74.4,30.06,SW,223,11.0,13.0,87,0.00,,,0.03,WUHU216DAVISVP2,2013-06-26 01:58:00,
2013-06-25 22:00:00,78.7,74.5,30.06,WSW,248,7.0,13.0,87,0.00,,,0.03,WUHU216DAVISVP2,2013-06-26 02:00:00,
2013-06-25 22:03:00,78.7,74.5,30.05,SSW,205,6.0,12.0,87,0.00,,,0.03,WUHU216DAVISVP2,2013-06-26 02:03:00,
2013-06-25 22:08:00,78.8,74.6,30.05,SW,216,11.0,17.0,87,0.00,,,0.03,WUHU216DAVISVP2,2013-06-26 02:08:00,
2013-06-25 22:13:00,78.8,74.3,30.05,SW,223,13.0,17.0,86,0.00,,,0.03,WUHU216DAVISVP2,2013-06-26 02:13:00,
2013-06-25 22:18:00,78.9,74.4,30.05,WSW,248,10.0,17.0,86,0.00,,,0.03,WUHU216DAVISVP2,2013-06-26 02:18:00,
2013-06-25 22:23:00,78.9,74.7,30.05,WSW,244,11.0,17.0,87,0.00,,,0.03,WUHU216DAVISVP2,2013-06-26 02:23:00,
2013-06-25 22:28:00,78.9,74.7,30.05,WSW,240,8.0,16.0,87,0.00,,,0.03,WUHU216DAVISVP2,2013-06-26 02:28:00,
2013-06-25 22:30:00,78.9,74.7,30.05,WSW,248,8.0,17.0,87,0.00,,,0.03,WUHU216DAVISVP2,2013-06-26 02:30:00,
2013-06-25 22:33:00,78.9,74.7,30.05,WSW,239,4.0,16.0,87,0.00,,,0.03,WUHU216DAVISVP2,2013-06-26 02:33:00,
2013-06-25 22:38:00,78.9,74.7,30.05,WSW,241,14.0,20.0,87,0.00,,,0.03,WUHU216DAVISVP2,2013-06-26 02:38:00,
2013-06-25 22:43:00,79.0,74.5,30.05,WSW,256,13.0,20.0,86,0.00,,,0.03,WUHU216DAVISVP2,2013-06-26 02:43:00,
2013-06-25 22:48:00,79.0,74.8,30.05,WSW,239,10.0,20.0,87,0.00,,,0.03,WUHU216DAVISVP2,2013-06-26 02:48:00,
2013-06-25 22:53:00,79.1,74.9,30.05,WSW,253,11.0,21.0,87,0.00,,,0.03,WUHU216DAVISVP2,2013-06-26 02:53:00,
2013-06-25 22:58:00,79.1,74.9,30.04,SW,222,13.0,21.0,87,0.00,,,0.03,WUHU216DAVISVP2,2013-06-26 02:58:00,
2013-06-25 23:00:00,79.1,74.9,30.05,WSW,248,11.0,21.0,87,0.00,,,0.03,WUHU216DAVISVP2,2013-06-26 03:00:00,
2013-06-25 23:03:00,79.1,74.9,30.04,SW,228,11.0,21.0,87,0.00,,,0.03,WUHU216DAVISVP2,2013-06-26 03:03:00,
2013-06-25 23:08:00,79.1,74.9,30.04,WSW,250,20.0,21.0,87,0.00,,,0.03,WUHU216DAVISVP2,2013-06-26 03:08:00,
2013-06-25 23:13:00,79.2,75.0,30.04,WSW,256,17.0,21.0,87,0.00,,,0.03,WUHU216DAVISVP2,2013-06-26 03:13:00,
2013-06-25 23:18:00,79.2,74.7,30.03,WSW,244,9.0,21.0,86,0.00,,,0.03,WUHU216DAVISVP2,2013-06-26 03:18:00,
2013-06-25 23:23:00,79.3,75.1,30.03,SW,236,11.0,21.0,87,0.00,,,0.03,WUHU216DAVISVP2,2013-06-26 03:23:00,
2013-06-25 23:28:00,79.2,75.0,30.03,SW,221,15.0,21.0,87,0.00,,,0.03,WUHU216DAVISVP2,2013-06-26 03:28:00,
2013-06-25 23:30:00,79.2,75.0,30.04,WSW,248,13.0,21.0,87,0.00,,,0.03,WUHU216DAVISVP2,2013-06-26 03:30:00,
2013-06-25 23:33:00,79.2,75.0,30.03,West,277,17.0,21.0,87,0.00,,,0.03,WUHU216DAVISVP2,2013-06-26 03:33:00,
2013-06-25 23:38:00,79.2,75.4,30.03,WSW,243,12.0,21.0,88,0.00,,,0.03,WUHU216DAVISVP2,2013-06-26 03:38:00,
2013-06-25 23:43:00,79.2,75.0,30.03,West,266,19.0,19.0,87,0.00,,,0.03,WUHU216DAVISVP2,2013-06-26 03:43:00,
2013-06-25 23:48:00,79.2,75.4,30.03,West,277,8.0,20.0,88,0.00,,,0.03,WUHU216DAVISVP2,2013-06-26 03:48:00,
2013-06-25 23:53:00,79.2,75.4,30.03,West,259,14.0,20.0,88,0.00,,,0.03,WUHU216DAVISVP2,2013-06-26 03:53:00,
2013-06-25 23:58:00,79.2,75.4,30.03,West,266,10.0,20.0,88,0.00,,,0.03,WUHU216DAVISVP2,2013-06-26 03:58:00,